Weather History for Nenana, AK

Change the Weather History Date:

Friday, September 28, 2012

  Actual Average Record
Temperature  
Mean Temperature 41 °F -  
Max Temperature 52 °F 43 °F 70 °F (2003)
Min Temperature 30 °F 23 °F 24 °F (2008)
Degree Days  
Heating Degree Days 24    
Moisture  
Dew Point 32 °F    
Average Humidity 82    
Maximum Humidity 93    
Minimum Humidity 70    
Precipitation  
Precipitation 0.16 in - - ()
Sea Level Pressure  
Sea Level Pressure 29.36 in    
Wind  
Wind Speed 3 mph (West)    
Max Wind Speed 12 mph    
Max Gust Speed -    
Visibility 10 miles    
Events Rain    
Averages and records for this station are not official NWS values.
T = Trace of Precipitation, MM = Missing Value Source: NWS Daily Summary

Daily Weather History Graph

Daily Weather History Graph

Search for Another Location

Airport:

Trip Planner

Search our weather history database for the weather conditions in past years. The results will help you decide how hot, cold, wet, or windy it might be!

Date:

Astronomy

Sep. 28, 2012 Rise Set
Actual Time 7:58 AM AKDT 7:32 PM AKDT
Civil Twilight 7:10 AM AKDT 8:21 PM AKDT
Nautical Twilight 6:12 AM AKDT 9:18 PM AKDT
Astronomical Twilight 5:09 AM AKDT 10:21 PM AKDT
Moon 6:40 PM AKDT (9/28) 6:28 AM AKDT (9/28)
Length of Visible Light 13h 10m
Length of Day
11h 34m
Waxing Gibbous, 98% of the Moon is Illuminated
Sep 28
Waxing Gibbous
Sep 29
Full
Oct 7
Last Quarter
Oct 15
New
Oct 21
First Quarter

Hourly Weather History & Observations

Time (AKDT) Temp. Windchill Dew Point Humidity Pressure Visibility Wind Dir Wind Speed Gust Speed Precip Events Conditions
12:53 AM 37.0 °F - 32.0 °F 82% 29.12 in 10.0 mi Calm Calm - N/A   Overcast
1:53 AM 37.0 °F - 32.0 °F 82% 29.13 in 10.0 mi Calm Calm - N/A   Mostly Cloudy
2:53 AM 37.0 °F - 32.0 °F 82% 29.14 in 10.0 mi Calm Calm - N/A   Overcast
3:53 AM 37.9 °F 32.1 °F 32.0 °F 79% 29.13 in 10.0 mi NW 8.1 mph - N/A   Overcast
4:53 AM 37.0 °F 33.3 °F 33.1 °F 86% 29.15 in 10.0 mi West 4.6 mph - N/A   Overcast
5:53 AM 37.0 °F 34.5 °F 33.1 °F 86% 29.16 in 10.0 mi West 3.5 mph - N/A   Overcast
6:53 AM 36.0 °F 33.3 °F 33.1 °F 89% 29.17 in 10.0 mi West 3.5 mph - N/A   Overcast
7:13 AM 37.4 °F 33.8 °F 32.0 °F 81% 29.15 in 10.0 mi West 4.6 mph - N/A   Overcast
7:44 AM 35.6 °F 32.8 °F 33.8 °F 93% 29.16 in 10.0 mi Variable 3.5 mph - N/A   Overcast
7:53 AM 36.0 °F 33.3 °F 32.0 °F 86% 29.18 in 10.0 mi Variable 3.5 mph - N/A   Overcast
8:53 AM 35.1 °F 30.1 °F 30.9 °F 85% 29.19 in 10.0 mi West 5.8 mph - N/A   Overcast
9:02 AM 35.6 °F 32.8 °F 30.2 °F 81% 29.18 in 10.0 mi Variable 3.5 mph - N/A   Overcast
9:27 AM 33.8 °F 28.6 °F 30.2 °F 87% 29.20 in 10.0 mi Variable 5.8 mph - N/A   Overcast
9:53 AM 34.0 °F 28.0 °F 30.0 °F 85% 29.23 in 10.0 mi WSW 6.9 mph - N/A   Overcast
10:01 AM 33.8 °F 28.6 °F 30.2 °F 87% 29.20 in 10.0 mi West 5.8 mph - N/A   Overcast
10:53 AM 34.0 °F 28.8 °F 30.0 °F 85% 29.24 in 10.0 mi West 5.8 mph - N/A   Overcast
11:53 AM 34.0 °F 28.0 °F 30.0 °F 85% 29.27 in 10.0 mi SW 6.9 mph - N/A   Overcast
12:53 PM 35.1 °F 29.3 °F 30.0 °F 82% 29.30 in 10.0 mi WSW 6.9 mph - N/A   Overcast
1:53 PM 36.0 °F 31.1 °F 28.9 °F 76% 29.32 in 10.0 mi Variable 5.8 mph - N/A   Overcast
2:53 PM 37.9 °F - 28.9 °F 70% 29.34 in 10.0 mi Calm Calm - N/A   Overcast
3:53 PM 37.9 °F 34.4 °F 28.9 °F 70% 29.36 in 10.0 mi West 4.6 mph - N/A   Overcast
4:53 PM 37.9 °F 34.4 °F 28.9 °F 70% 29.37 in 10.0 mi WSW 4.6 mph - N/A   Overcast
5:14 PM 37.4 °F 34.9 °F 28.4 °F 70% 29.35 in 10.0 mi West 3.5 mph - N/A   Overcast
5:53 PM 37.0 °F 34.5 °F 28.9 °F 73% 29.40 in 10.0 mi Variable 3.5 mph - N/A   Overcast
6:22 PM 37.4 °F - 28.4 °F 70% 29.38 in 10.0 mi Calm Calm - N/A   Overcast
6:36 PM 37.4 °F - 28.4 °F 70% 29.38 in 10.0 mi Calm Calm - N/A   Overcast
6:53 PM 37.0 °F 34.5 °F 28.9 °F 73% 29.41 in 10.0 mi Variable 3.5 mph - N/A   Scattered Clouds
7:53 PM 36.0 °F - 28.9 °F 76% 29.42 in 10.0 mi Calm Calm - N/A   Scattered Clouds
8:53 PM 34.0 °F - 28.9 °F 82% 29.44 in 10.0 mi Calm Calm - N/A   Clear
9:32 PM 33.8 °F 29.6 °F 28.4 °F 81% 29.44 in 10.0 mi SSW 4.6 mph - N/A   Mostly Cloudy
9:53 PM 33.1 °F - 28.0 °F 82% 29.47 in 10.0 mi Calm Calm - N/A   Mostly Cloudy
10:53 PM 32.0 °F - 28.9 °F 88% 29.47 in 10.0 mi Calm Calm - N/A   Scattered Clouds
11:29 PM 30.2 °F - 26.6 °F 86% 29.47 in 10.0 mi Calm Calm - N/A   Mostly Cloudy
11:53 PM 30.9 °F - 27.0 °F 85% 29.50 in 10.0 mi Calm Calm - N/A   Overcast